DW5595 Weather Reports


Display with metric or nautical units.
time (UTC)temp
F
wind
direction
speed
MPH
gust
MPH
rain 1hr
in
rain 24hr
in
rain mn
in
humidity
%
barometer
mb
20260504081515 40 157 0.0 0.0 0.00 0.00 0.00 92 1016.4
20260504050018 43 157 0.0 0.0 0.00 0.00 0.00 89 1016.8
20260504044532 43 157 0.0 0.0 0.00 0.00 0.00 87 1016.8
20260504043028 44 157 0.0 0.0 0.00 0.00 0.00 86 1016.5
20260504041528 44 157 0.0 0.0 0.00 0.00 0.00 87 1016.5
20260504040025 45 157 0.0 0.0 0.00 0.00 0.00 84 1016.7
20260504034526 45 157 0.0 0.0 0.00 0.00 0.00 85 1016.6
20260504033021 46 157 0.0 0.0 0.00 0.00 0.00 83 1016.9
20260504031523 47 157 0.0 0.0 0.00 0.00 0.00 83 1016.9
20260504030013 47 157 0.0 0.0 0.00 0.00 0.00 79 1016.8
20260504024511 48 157 0.0 0.0 0.00 0.00 0.00 78 1016.8
20260504023026 48 157 0.0 0.0 0.00 0.00 0.00 77 1016.7
20260504021524 49 157 0.0 0.0 0.00 0.00 0.00 75 1016.6
20260504020022 50 157 0.0 0.0 0.00 0.00 0.00 73 1016.3
20260504014522 50 157 0.0 0.0 0.00 0.00 0.00 73 1016.0
20260504013024 51 157 0.0 0.0 0.00 0.00 0.00 72 1015.8
20260504011515 53 157 0.0 0.0 0.00 0.00 0.00 66 1015.8
20260504010026 54 157 0.0 0.0 0.00 0.00 0.00 63 1015.6
20260504004529 56 157 0.0 0.0 0.00 0.00 0.00 60 1015.5
20260504003038 57 157 0.0 0.0 0.00 0.00 0.00 57 1015.5
20260504001527 59 159 0.0 2.0 0.00 0.00 0.00 50 1015.3
20260504000046 61 132 0.0 0.0 0.00 0.00 0.00 45 1015.1
20260503234516 63 147 0.0 3.0 0.00 0.00 0.00 40 1015.1
20260503233011 64 144 0.0 4.0 0.00 0.00 0.00 37 1015.1
20260503231530 65 130 1.0 3.0 0.00 0.00 0.00 34 1015.0
20260503230026 65 142 1.0 7.0 0.00 0.00 0.00 33 1015.2
20260503224529 66 146 2.0 5.0 0.00 0.00 0.00 32 1015.1
20260503223028 66 157 3.0 8.0 0.00 0.00 0.00 31 1015.1
20260503221520 66 117 3.0 9.0 0.00 0.00 0.00 32 1015.2
20260503220020 66 169 2.0 7.0 0.00 0.00 0.00 31 1015.4
20260503214519 67 177 2.0 6.0 0.00 0.00 0.00 37 1015.4
20260503213026 66 191 2.0 6.0 0.00 0.00 0.00 33 1015.7
20260503211527 67 152 1.0 8.0 0.00 0.00 0.00 34 1015.8
20260503210027 66 187 2.0 7.0 0.00 0.00 0.00 34 1015.9
20260503204523 66 302 3.0 9.0 0.00 0.00 0.00 33 1016.0
20260503203029 66 97 2.0 7.0 0.00 0.00 0.00 33 1016.4
20260503201518 66 304 2.0 8.0 0.00 0.00 0.00 36 1016.5
20260503200027 66 141 4.0 11.0 0.00 0.00 0.00 35 1016.8
20260503194528 66 94 2.0 7.0 0.00 0.00 0.00 34 1016.9
20260503193028 65 107 0.0 10.0 0.00 0.00 0.00 34 1017.2
20260503191524 65 237 1.0 6.0 0.00 0.00 0.00 32 1017.3
20260503190025 65 265 0.0 3.0 0.00 0.00 0.00 32 1017.5
20260503184523 64 121 2.0 8.0 0.00 0.00 0.00 31 1017.6
20260503183025 64 342 2.0 12.0 0.00 0.00 0.00 29 1017.7
20260503181517 63 309 6.0 9.0 0.00 0.00 0.00 32 1017.9
20260503180024 63 332 4.0 8.0 0.00 0.00 0.00 33 1018.2
20260503174514 62 360 4.0 8.0 0.00 0.00 0.00 34 1018.2
20260503173018 62 42 1.0 7.0 0.00 0.00 0.00 34 1018.4
20260503171504 62 180 4.0 7.0 0.00 0.00 0.00 36 1018.7